Location: Newark
(33.6439°N, 114.9881°W)
Time: 00:08:21
(UTC+00:00)

Tiros 1 - Pass Details

Date: 28 July 2019
Orbit: 631 x 664 km, 48.4° (Epoch: 24 August)

Event Time Altitude Azimuth Distance (km) Brightness Sun altitude
Rises 22:06:26 0° 314° (NW) 2,996 10.8 55.6°
Reaches altitude 10° 22:09:03 10° 325° (NW) 2,082 10.0 55.0°
Maximum altitude 22:13:16 30° 27° (NNE) 1,193 8.6 54.2°
Drops below altitude 10° 22:17:28 10° 88° (E) 2,072 9.5 53.3°
Sets 22:20:03 0° 99° (E) 2,978 10.2 52.8°
